This demonstration page uses our WeatherBlox Daily Observations layout. Learn more.

Left ArrowRight Arrow

Hourly Observations for November 29, 2022

Temp ( °F °C ) Dew Point ( °F °C ) Humidity (%) Winds ( mph kmh ) Pressure ( in mb ) Visibility ( mi km ) Precip ( " mm )
12:51 am 00:51 Clear 40 4.4 15 -9.4 36 36 ESE 6 9 29.75 1008 10 16 0.00 0.00
1:51 am 01:51 Clear 36 2.2 14 -10 40 40 NNW 7 11 29.77 1008 10 16 0.00 0.00
2:51 am 02:51 Clear 37 2.8 14 -10 38 38 E 7 11 29.75 1008 10 16 0.00 0.00
3:51 am 03:51 Clear 36 2.2 15 -9.4 42 42 E 3 6 29.76 1008 10 16 0.00 0.00
4:51 am 04:51 Clear 35 1.7 16 -8.9 45 45 E 7 11 29.77 1008 10 16 0.00 0.00
5:51 am 05:51 Clear 31 -0.6 14 -10 49 49 Calm 29.81 1009 10 16 0.00 0.00
6:51 am 06:51 Clear 32 0 16 -8.9 51 51 Calm 29.86 1011 10 16 0.00 0.00
7:51 am 07:51 Sunny 38 3.3 18 -7.8 44 44 Calm 29.89 1012 10 16 0.00 0.00
8:51 am 08:51 Sunny 44 6.7 20 -6.7 38 38 Calm 29.90 1013 10 16 0.00 0.00
9:51 am 09:51 Sunny 51 10.6 22 -5.6 31 31 Calm 29.91 1013 10 16 0.00 0.00
10:51 am 10:51 Sunny 56 13.3 24 -4.4 29 29 W 7 11 29.91 1013 10 16 0.00 0.00
11:51 am 11:51 Sunny 60 15.6 25 -3.9 26 26 W 10 17 29.89 1012 10 16 0.00 0.00
12:51 pm 12:51 Sunny 63 17.2 27 -2.8 25 25 WNW 12 19 29.87 1012 10 16 0.00 0.00
1:51 pm 13:51 Sunny 65 18.3 27 -2.8 24 24 NW 13 20 29.88 1012 10 16 0.00 0.00
2:51 pm 14:51 Sunny 65 18.3 27 -2.8 24 24 WNW 14 22 29.88 1012 10 16 0.00 0.00
3:51 pm 15:51 Sunny 64 17.8 26 -3.3 23 23 W 8 13 29.89 1012 10 16 0.00 0.00
4:51 pm 16:51 Sunny 61 16.1 26 -3.3 26 26 WNW 8 13 29.91 1013 10 16 0.00 0.00
5:51 pm 17:51 Clear 53 11.7 25 -3.9 33 33 W 9 15 29.95 1014 10 16 0.00 0.00
6:51 pm 18:51 Clear 50 10 27 -2.8 40 40 W 5 7 29.98 1015 10 16 0.00 0.00
7:51 pm 19:51 Clear 46 7.8 25 -3.9 43 43 N 7 11 29.99 1016 10 16 0.00 0.00
8:51 pm 20:51 Clear 47 8.3 27 -2.8 45 45 NW 6 9 30.00 1016 10 16 0.00 0.00
9:51 pm 21:51 Clear 43 6.1 24 -4.4 47 47 Calm 30.01 1016 10 16 0.00 0.00
10:51 pm 22:51 Clear 39 3.9 22 -5.6 50 50 E 3 6 30.03 1017 10 16 0.00 0.00

Powered by AerisWeather